Flag for Canada Weather past 2 weeks in Québec, Quebec, Canada

Now
75 °F

Scattered clouds.


Feels Like: 76 °F
Forecast: 55 / 71 °F
Wind: 10 mph from Southwest

Location: Quebec Weather Station

Current Time: May 27, 2015 at 9:04:47 PM

Latest Report: May 27, 2015 at 8:00 PM


Visibility: 25 mi

Pressure: 29.85 "Hg

Humidity: 78%

Dew point: 68 °F

Location of QuébecLocation

Historic Weather in Québec — Graph

°F

Québec temperature yesterday

Maximum temperature yesterday: 81 °F (at 6:00 PM)
Minimum temperature yesterday: 59 °F (at 12:00 AM)
Average temperature yesterday: 67 °F

Past Weeks' High & Low Weather Summary

 TemperatureHumidityPressure
High81 °F (May 26, 6:00 PM)100% (May 19, 12:00 AM)30.33 "Hg (May 19, 12:00 AM)
Low32 °F (May 23, 2:00 AM)26% (May 14, 4:00 PM)29.49 "Hg (May 12, 7:00 PM)
Average57 °F66%29.97 "Hg
* Reported May 12 7:00 PM — May 27 7:00 PM, Québec, Weather by CustomWeather, © 2015

Note: Actual official high and low records may vary slightly from our data, if they occured in-between our weather recording intervals... More about our weather records

Advertising

Québec weather history for previous 24 hours

 ConditionsComfort  
Time TempWeatherWind HumidityBarometerVisibility
7:00 PM
Wed, May 27
77 °FBroken clouds.12 mph79%29.83 "Hg25 mi
6:00 PM77 °FBroken clouds.18 mph79%29.84 "Hg25 mi
5:00 PM77 °FBroken clouds.16 mph79%29.85 "Hg20 mi
4:00 PM75 °FBroken clouds.13 mph89%29.87 "Hg15 mi
3:00 PM73 °FSprinkles. Broken clouds.13 mph89%29.88 "Hg8 mi
2:00 PM72 °FThunderstorms. Fog.5 mph83%29.88 "Hg2 mi
1:52 PM73 °FPartly sunny.2 mph78%29.89 "Hg15 mi
1:00 PM70 °FPartly sunny.3 mph78%29.90 "Hg15 mi
12:00 PM68 °FBroken clouds.8 mph88%29.94 "Hg15 mi
11:00 AM64 °FScattered clouds.8 mph83%29.96 "Hg15 mi
10:00 AM61 °FMostly cloudy.9 mph94%29.98 "Hg10 mi
9:00 AM57 °FFog.9 mph100%30.00 "Hg2 mi
8:00 AM59 °FFog.8 mph94%30.02 "Hg2 mi
7:02 AM59 °FSprinkles. Fog.6 mph100%30.01 "Hg2 mi
6:00 AM63 °FFog.7 mph94%30.00 "Hg6 mi
5:00 AM61 °FPassing clouds.No wind100%30.00 "Hg15 mi
4:00 AM61 °FPassing clouds.3 mph100%29.98 "Hg15 mi
3:00 AM63 °FClear.2 mph94%29.99 "Hg15 mi
2:00 AM63 °FClear.5 mph94%29.99 "Hg15 mi
1:00 AM64 °FPassing clouds.No wind100%29.99 "Hg15 mi
12:00 AM68 °FPassing clouds.2 mph88%29.98 "Hg15 mi
11:55 PM
Tue, May 26
68 °FPassing clouds.2 mph88%29.98 "Hg15 mi
11:00 PM70 °FSprinkles. Partly cloudy.5 mph83%29.96 "Hg10 mi
10:00 PM72 °FPassing clouds.8 mph78%29.95 "Hg15 mi
9:00 PM73 °FPassing clouds.8 mph74%29.92 "Hg20 mi
Weather by CustomWeather, © 2015

See weather overviewHow to use our weather pages